Time,TemperatureF,DewpointF,PressureIn,WindDirection,WindDirectionDegrees,WindSpeedMPH,WindSpeedGustMPH,Humidity,HourlyPrecipIn,Conditions,Clouds,dailyrainin,SoftwareType,DateUTC
2013-08-07 00:22:00,71.0,68.0,29.91,SE,133,0.0,1.0,90,0.00,,,0.00,,2013-08-07 05:22:00,
2013-08-07 00:32:00,71.0,68.0,29.91,SE,133,0.0,1.0,90,0.00,,,0.00,,2013-08-07 05:32:00,
2013-08-07 00:43:00,71.0,68.0,29.91,SE,133,0.0,1.0,90,0.00,,,0.00,,2013-08-07 05:43:00,
2013-08-07 00:52:00,71.0,68.0,29.91,SE,133,0.0,0.0,91,0.00,,,0.00,,2013-08-07 05:52:00,
2013-08-07 01:02:00,71.0,68.0,29.91,SE,133,0.0,0.0,91,0.00,,,0.00,,2013-08-07 06:02:00,
2013-08-07 01:11:00,71.0,68.0,29.91,SE,133,0.0,0.0,91,0.00,,,0.00,,2013-08-07 06:11:00,
2013-08-07 01:22:00,70.0,67.0,29.91,SE,133,0.0,1.0,91,0.00,,,0.00,,2013-08-07 06:22:00,
2013-08-07 01:32:00,70.0,67.0,29.91,SE,133,0.0,1.0,91,0.00,,,0.00,,2013-08-07 06:32:00,
2013-08-07 01:43:00,70.0,67.0,29.91,SE,133,0.0,1.0,91,0.00,,,0.00,,2013-08-07 06:43:00,
2013-08-07 01:52:00,70.0,68.0,29.88,SE,137,1.0,5.0,92,0.00,,,0.00,,2013-08-07 06:52:00,
2013-08-07 02:01:00,70.0,68.0,29.88,SE,137,1.0,5.0,92,0.00,,,0.00,,2013-08-07 07:01:00,
2013-08-07 02:12:00,70.0,68.0,29.88,SE,137,1.0,5.0,92,0.00,,,0.00,,2013-08-07 07:12:00,
2013-08-07 02:22:00,70.0,68.0,29.88,SE,137,1.0,5.0,92,0.00,,,0.00,,2013-08-07 07:22:00,
2013-08-07 02:33:00,70.0,68.0,29.88,SE,137,1.0,5.0,92,0.00,,,0.00,,2013-08-07 07:33:00,
2013-08-07 02:43:00,70.0,68.0,29.88,SE,137,1.0,5.0,92,0.00,,,0.00,,2013-08-07 07:43:00,
2013-08-07 02:52:00,69.0,67.0,29.86,SE,142,2.0,6.0,93,0.00,,,0.00,,2013-08-07 07:52:00,
2013-08-07 03:01:00,69.0,67.0,29.86,SE,142,2.0,6.0,93,0.00,,,0.00,,2013-08-07 08:01:00,
2013-08-07 03:11:00,69.0,67.0,29.86,SE,142,2.0,6.0,93,0.00,,,0.00,,2013-08-07 08:11:00,
2013-08-07 03:22:00,69.0,67.0,29.86,SSE,157,0.0,4.0,93,0.00,,,0.00,,2013-08-07 08:22:00,
2013-08-07 03:32:00,69.0,67.0,29.86,SSE,157,0.0,4.0,93,0.00,,,0.00,,2013-08-07 08:32:00,
2013-08-07 03:44:00,69.0,67.0,29.86,SSE,157,0.0,4.0,93,0.00,,,0.00,,2013-08-07 08:44:00,
2013-08-07 03:53:00,69.0,67.0,29.85,SSE,157,0.0,4.0,94,0.00,,,0.00,,2013-08-07 08:53:00,
2013-08-07 04:02:00,69.0,67.0,29.85,SSE,157,0.0,4.0,94,0.00,,,0.00,,2013-08-07 09:02:00,
2013-08-07 04:11:00,69.0,67.0,29.85,SSE,157,0.0,4.0,94,0.00,,,0.00,,2013-08-07 09:11:00,
2013-08-07 04:22:00,69.0,67.0,29.86,SSE,158,1.0,3.0,94,0.00,,,0.00,,2013-08-07 09:22:00,
2013-08-07 04:32:00,69.0,67.0,29.86,SSE,158,1.0,3.0,94,0.00,,,0.00,,2013-08-07 09:32:00,
2013-08-07 04:43:00,69.0,67.0,29.86,SSE,158,1.0,3.0,94,0.00,,,0.00,,2013-08-07 09:43:00,
2013-08-07 04:54:00,70.0,68.0,29.85,South,169,0.0,1.0,94,0.00,,,0.00,,2013-08-07 09:54:00,
2013-08-07 05:01:00,70.0,68.0,29.85,South,169,0.0,1.0,94,0.00,,,0.00,,2013-08-07 10:01:00,
2013-08-07 05:11:00,70.0,68.0,29.85,South,169,0.0,1.0,94,0.00,,,0.00,,2013-08-07 10:11:00,
2013-08-07 05:22:00,69.0,67.0,29.86,South,169,0.0,1.0,94,0.00,,,0.00,,2013-08-07 10:22:00,
2013-08-07 05:32:00,69.0,67.0,29.86,South,169,0.0,1.0,94,0.00,,,0.00,,2013-08-07 10:32:00,
2013-08-07 05:43:00,69.0,67.0,29.86,South,169,0.0,1.0,94,0.00,,,0.00,,2013-08-07 10:43:00,
2013-08-07 05:52:00,70.0,68.0,29.87,South,169,0.0,1.0,94,0.00,,,0.00,,2013-08-07 10:52:00,
2013-08-07 06:01:00,70.0,68.0,29.87,South,169,0.0,1.0,94,0.00,,,0.00,,2013-08-07 11:01:00,
2013-08-07 06:11:00,70.0,68.0,29.87,South,169,0.0,1.0,94,0.00,,,0.00,,2013-08-07 11:11:00,
2013-08-07 06:22:00,70.0,68.0,29.87,SSE,164,2.0,4.0,94,0.00,,,0.00,,2013-08-07 11:22:00,
2013-08-07 06:32:00,70.0,68.0,29.87,SSE,164,2.0,4.0,94,0.00,,,0.00,,2013-08-07 11:32:00,
2013-08-07 06:43:00,70.0,68.0,29.87,SSE,164,2.0,4.0,94,0.00,,,0.00,,2013-08-07 11:43:00,
2013-08-07 06:53:00,70.0,68.0,29.87,SSE,149,2.0,6.0,94,0.00,,,0.00,,2013-08-07 11:53:00,
2013-08-07 07:02:00,70.0,68.0,29.87,SSE,149,2.0,6.0,94,0.00,,,0.00,,2013-08-07 12:02:00,
2013-08-07 07:11:00,70.0,68.0,29.87,SSE,149,2.0,6.0,94,0.00,,,0.00,,2013-08-07 12:11:00,
2013-08-07 07:22:00,70.0,68.0,29.87,SSE,149,2.0,6.0,94,0.00,,,0.00,,2013-08-07 12:22:00,
2013-08-07 07:32:00,70.0,68.0,29.87,SSE,149,2.0,6.0,94,0.00,,,0.00,,2013-08-07 12:32:00,
2013-08-07 07:52:00,70.0,68.0,29.91,SSW,201,0.0,3.0,95,0.00,,,0.00,,2013-08-07 12:52:00,
2013-08-07 08:02:00,70.0,68.0,29.91,SSW,201,0.0,3.0,95,0.00,,,0.00,,2013-08-07 13:02:00,
2013-08-07 08:11:00,70.0,68.0,29.91,SSW,201,0.0,3.0,95,0.00,,,0.00,,2013-08-07 13:11:00,
2013-08-07 08:22:00,71.0,69.0,29.91,SSW,206,1.0,4.0,95,0.00,,,0.00,,2013-08-07 13:22:00,
2013-08-07 08:32:00,71.0,69.0,29.91,SSW,206,1.0,4.0,95,0.00,,,0.00,,2013-08-07 13:32:00,
2013-08-07 08:44:00,71.0,69.0,29.91,SSW,206,1.0,4.0,95,0.00,,,0.00,,2013-08-07 13:44:00,
2013-08-07 08:53:00,71.0,69.0,29.89,ESE,119,2.0,5.0,95,0.00,,,0.00,,2013-08-07 13:53:00,
2013-08-07 09:02:00,71.0,69.0,29.89,ESE,119,2.0,5.0,95,0.00,,,0.00,,2013-08-07 14:02:00,
2013-08-07 09:12:00,71.0,69.0,29.89,ESE,119,2.0,5.0,95,0.00,,,0.00,,2013-08-07 14:12:00,
2013-08-07 09:22:00,72.0,70.0,29.89,South,173,1.0,6.0,94,0.00,,,0.00,,2013-08-07 14:22:00,
2013-08-07 09:33:00,72.0,70.0,29.89,South,173,1.0,6.0,94,0.00,,,0.00,,2013-08-07 14:33:00,
2013-08-07 09:43:00,72.0,70.0,29.89,South,173,1.0,6.0,94,0.00,,,0.00,,2013-08-07 14:43:00,
2013-08-07 09:52:00,73.0,71.0,29.90,SSE,155,0.0,5.0,94,0.00,,,0.00,,2013-08-07 14:52:00,
2013-08-07 10:02:00,73.0,71.0,29.90,SSE,155,0.0,5.0,94,0.00,,,0.00,,2013-08-07 15:02:00,
2013-08-07 10:12:00,73.0,71.0,29.90,SSE,155,0.0,5.0,94,0.00,,,0.00,,2013-08-07 15:12:00,
2013-08-07 10:22:00,74.0,72.0,29.90,South,187,2.0,6.0,92,0.00,,,0.00,,2013-08-07 15:22:00,
2013-08-07 10:33:00,74.0,72.0,29.90,South,187,2.0,6.0,92,0.00,,,0.00,,2013-08-07 15:33:00,
2013-08-07 10:43:00,74.0,72.0,29.90,South,187,2.0,6.0,92,0.00,,,0.00,,2013-08-07 15:43:00,
2013-08-07 10:53:00,74.0,71.0,29.91,SSW,200,2.0,7.0,90,0.00,,,0.00,,2013-08-07 15:53:00,
2013-08-07 11:02:00,74.0,71.0,29.91,SSW,200,2.0,7.0,90,0.00,,,0.00,,2013-08-07 16:02:00,
2013-08-07 11:11:00,74.0,71.0,29.91,SSW,200,2.0,7.0,90,0.00,,,0.00,,2013-08-07 16:11:00,
2013-08-07 11:22:00,75.0,71.0,29.90,SSW,206,2.0,7.0,87,0.00,,,0.00,,2013-08-07 16:22:00,
2013-08-07 11:33:00,75.0,71.0,29.90,SSW,206,2.0,7.0,87,0.00,,,0.00,,2013-08-07 16:33:00,
2013-08-07 11:43:00,75.0,71.0,29.90,SSW,206,2.0,7.0,87,0.00,,,0.00,,2013-08-07 16:43:00,
2013-08-07 11:53:00,76.0,72.0,29.89,SW,217,1.0,7.0,87,0.00,,,0.00,,2013-08-07 16:53:00,
2013-08-07 12:01:00,76.0,72.0,29.89,SW,217,1.0,7.0,87,0.00,,,0.00,,2013-08-07 17:01:00,
2013-08-07 12:11:00,76.0,72.0,29.89,SW,217,1.0,7.0,87,0.00,,,0.00,,2013-08-07 17:11:00,
2013-08-07 12:22:00,79.0,73.0,29.88,West,273,1.0,7.0,83,0.00,,,0.00,,2013-08-07 17:22:00,
2013-08-07 12:33:00,79.0,73.0,29.88,West,273,1.0,7.0,83,0.00,,,0.00,,2013-08-07 17:33:00,
2013-08-07 12:43:00,79.0,73.0,29.88,West,273,1.0,7.0,83,0.00,,,0.00,,2013-08-07 17:43:00,
2013-08-07 12:52:00,81.0,73.0,29.88,West,274,2.0,7.0,77,0.00,,,0.00,,2013-08-07 17:52:00,
2013-08-07 13:02:00,81.0,73.0,29.88,West,274,2.0,7.0,77,0.00,,,0.00,,2013-08-07 18:02:00,
2013-08-07 13:11:00,81.0,73.0,29.88,West,274,2.0,7.0,77,0.00,,,0.00,,2013-08-07 18:11:00,
2013-08-07 13:22:00,80.0,72.0,29.88,NW,310,2.0,5.0,78,0.00,,,0.00,,2013-08-07 18:22:00,
2013-08-07 13:32:00,80.0,72.0,29.88,NW,310,2.0,5.0,78,0.00,,,0.00,,2013-08-07 18:32:00,
2013-08-07 13:43:00,80.0,72.0,29.88,NW,310,2.0,5.0,78,0.00,,,0.00,,2013-08-07 18:43:00,
2013-08-07 13:52:00,81.0,73.0,29.88,WSW,241,2.0,5.0,77,0.00,,,0.00,,2013-08-07 18:52:00,
2013-08-07 14:01:00,81.0,73.0,29.88,WSW,241,2.0,5.0,77,0.00,,,0.00,,2013-08-07 19:01:00,
2013-08-07 14:11:00,81.0,73.0,29.88,WSW,241,2.0,5.0,77,0.00,,,0.00,,2013-08-07 19:11:00,
2013-08-07 14:22:00,81.0,73.0,29.88,WSW,257,1.0,6.0,77,0.00,,,0.00,,2013-08-07 19:22:00,
2013-08-07 14:32:00,81.0,73.0,29.88,WSW,257,1.0,6.0,77,0.00,,,0.00,,2013-08-07 19:32:00,
2013-08-07 14:44:00,81.0,73.0,29.88,WSW,257,1.0,6.0,77,0.00,,,0.00,,2013-08-07 19:44:00,
2013-08-07 14:52:00,81.0,73.0,29.88,WNW,283,2.0,7.0,77,0.00,,,0.00,,2013-08-07 19:52:00,
2013-08-07 15:02:00,81.0,73.0,29.88,WNW,283,2.0,7.0,77,0.00,,,0.00,,2013-08-07 20:02:00,
2013-08-07 15:11:00,81.0,73.0,29.88,WNW,283,2.0,7.0,77,0.00,,,0.00,,2013-08-07 20:11:00,
2013-08-07 15:22:00,82.0,74.0,29.87,SW,227,2.0,6.0,76,0.00,,,0.00,,2013-08-07 20:22:00,
2013-08-07 15:32:00,82.0,74.0,29.87,SW,227,2.0,6.0,76,0.00,,,0.00,,2013-08-07 20:32:00,
2013-08-07 15:43:00,82.0,74.0,29.87,SW,227,2.0,6.0,76,0.00,,,0.00,,2013-08-07 20:43:00,
2013-08-07 15:52:00,84.0,75.0,29.86,West,281,1.0,5.0,74,0.00,,,0.00,,2013-08-07 20:52:00,
2013-08-07 16:01:00,84.0,75.0,29.86,West,281,1.0,5.0,74,0.00,,,0.00,,2013-08-07 21:01:00,
2013-08-07 16:11:00,84.0,75.0,29.86,West,281,1.0,5.0,74,0.00,,,0.00,,2013-08-07 21:11:00,
2013-08-07 16:22:00,84.0,74.0,29.85,WNW,285,2.0,6.0,73,0.00,,,0.00,,2013-08-07 21:22:00,
2013-08-07 16:32:00,84.0,74.0,29.85,WNW,285,2.0,6.0,73,0.00,,,0.00,,2013-08-07 21:32:00,
2013-08-07 16:43:00,84.0,74.0,29.85,WNW,285,2.0,6.0,73,0.00,,,0.00,,2013-08-07 21:43:00,
2013-08-07 16:52:00,84.0,74.0,29.86,West,274,2.0,5.0,73,0.00,,,0.00,,2013-08-07 21:52:00,
2013-08-07 17:01:00,84.0,74.0,29.86,West,274,2.0,5.0,73,0.00,,,0.00,,2013-08-07 22:01:00,
2013-08-07 17:12:00,84.0,74.0,29.86,West,274,2.0,5.0,73,0.00,,,0.00,,2013-08-07 22:12:00,
2013-08-07 17:22:00,84.0,73.0,29.85,West,275,2.0,5.0,70,0.00,,,0.00,,2013-08-07 22:22:00,
2013-08-07 17:32:00,84.0,73.0,29.85,West,275,2.0,5.0,70,0.00,,,0.00,,2013-08-07 22:32:00,
2013-08-07 17:43:00,84.0,73.0,29.85,West,275,2.0,5.0,70,0.00,,,0.00,,2013-08-07 22:43:00,
2013-08-07 17:52:00,84.0,73.0,29.86,West,274,1.0,3.0,70,0.00,,,0.00,,2013-08-07 22:52:00,
2013-08-07 18:01:00,84.0,73.0,29.86,West,274,1.0,3.0,70,0.00,,,0.00,,2013-08-07 23:01:00,
2013-08-07 18:11:00,84.0,73.0,29.86,West,274,1.0,3.0,70,0.00,,,0.00,,2013-08-07 23:11:00,
2013-08-07 18:22:00,84.0,74.0,29.86,WSW,247,0.0,4.0,73,0.00,,,0.00,,2013-08-07 23:22:00,
2013-08-07 18:32:00,84.0,74.0,29.86,WSW,247,0.0,4.0,73,0.00,,,0.00,,2013-08-07 23:32:00,
2013-08-07 18:43:00,84.0,74.0,29.86,WSW,247,0.0,4.0,73,0.00,,,0.00,,2013-08-07 23:43:00,
2013-08-07 18:52:00,84.0,73.0,29.86,SSW,212,0.0,3.0,70,0.00,,,0.00,,2013-08-07 23:52:00,
2013-08-07 19:01:00,84.0,73.0,29.86,SSW,212,0.0,3.0,70,0.00,,,0.00,,2013-08-08 00:01:00,
2013-08-07 19:11:00,84.0,73.0,29.86,SSW,212,0.0,3.0,70,0.00,,,0.00,,2013-08-08 00:11:00,
2013-08-07 19:22:00,82.0,72.0,29.87,SSW,212,0.0,4.0,72,0.00,,,0.00,,2013-08-08 00:22:00,
2013-08-07 19:32:00,82.0,72.0,29.87,SSW,212,0.0,4.0,72,0.00,,,0.00,,2013-08-08 00:32:00,
2013-08-07 19:43:00,82.0,72.0,29.87,SSW,212,0.0,4.0,72,0.00,,,0.00,,2013-08-08 00:43:00,
2013-08-07 19:52:00,82.0,72.0,29.87,SSW,212,0.0,4.0,72,0.00,,,0.00,,2013-08-08 00:52:00,
2013-08-07 20:02:00,81.0,72.0,29.88,SSW,212,0.0,4.0,75,0.00,,,0.00,,2013-08-08 01:02:00,
2013-08-07 20:11:00,81.0,72.0,29.88,SSW,212,0.0,4.0,75,0.00,,,0.00,,2013-08-08 01:11:00,
2013-08-07 20:22:00,81.0,72.0,29.88,SSW,212,0.0,4.0,75,0.00,,,0.00,,2013-08-08 01:22:00,
2013-08-07 20:32:00,80.0,73.0,29.88,SSW,212,1.0,2.0,80,0.00,,,0.00,,2013-08-08 01:32:00,
2013-08-07 20:43:00,80.0,73.0,29.88,SSW,212,1.0,2.0,80,0.00,,,0.00,,2013-08-08 01:43:00,
2013-08-07 20:52:00,80.0,73.0,29.88,SSW,212,1.0,2.0,80,0.00,,,0.00,,2013-08-08 01:52:00,
2013-08-07 21:02:00,80.0,73.0,29.88,SSW,212,1.0,2.0,80,0.00,,,0.00,,2013-08-08 02:02:00,
2013-08-07 21:11:00,80.0,73.0,29.88,SSW,212,1.0,2.0,80,0.00,,,0.00,,2013-08-08 02:11:00,
2013-08-07 21:22:00,78.0,72.0,29.90,South,187,0.0,4.0,82,0.00,,,0.00,,2013-08-08 02:22:00,
2013-08-07 21:32:00,78.0,72.0,29.90,South,187,0.0,4.0,82,0.00,,,0.00,,2013-08-08 02:32:00,
2013-08-07 21:43:00,78.0,72.0,29.90,South,187,0.0,4.0,82,0.00,,,0.00,,2013-08-08 02:43:00,
2013-08-07 21:52:00,77.0,70.0,29.90,West,277,1.0,4.0,80,0.00,,,0.00,,2013-08-08 02:52:00,
2013-08-07 22:01:00,77.0,70.0,29.90,West,277,1.0,4.0,80,0.00,,,0.00,,2013-08-08 03:01:00,
2013-08-07 22:12:00,77.0,70.0,29.90,West,277,1.0,4.0,80,0.00,,,0.00,,2013-08-08 03:12:00,
2013-08-07 22:22:00,76.0,71.0,29.92,West,277,0.0,1.0,85,0.00,,,0.00,,2013-08-08 03:22:00,
2013-08-07 22:32:00,76.0,71.0,29.92,West,277,0.0,1.0,85,0.00,,,0.00,,2013-08-08 03:32:00,
2013-08-07 22:43:00,76.0,71.0,29.92,West,277,0.0,1.0,85,0.00,,,0.00,,2013-08-08 03:43:00,
2013-08-07 22:52:00,76.0,71.0,29.92,West,277,0.0,1.0,85,0.00,,,0.00,,2013-08-08 03:52:00,
2013-08-07 23:01:00,75.0,71.0,29.93,West,277,0.0,1.0,86,0.00,,,0.00,,2013-08-08 04:01:00,
2013-08-07 23:11:00,75.0,71.0,29.93,West,277,0.0,1.0,86,0.00,,,0.00,,2013-08-08 04:11:00,
2013-08-07 23:22:00,75.0,71.0,29.93,West,277,0.0,2.0,87,0.00,,,0.00,,2013-08-08 04:22:00,
2013-08-07 23:33:00,75.0,71.0,29.93,West,277,0.0,2.0,87,0.00,,,0.00,,2013-08-08 04:33:00,
2013-08-07 23:43:00,75.0,71.0,29.93,West,277,0.0,2.0,87,0.00,,,0.00,,2013-08-08 04:43:00,
2013-08-07 23:53:00,74.0,70.0,29.93,West,277,0.0,2.0,88,0.00,,,0.00,,2013-08-08 04:53:00,